Overview Statistics Trail Chart Weather Telemetry Raw packets
 

This is the latest recevied weather packets stored in our database for station/object GBTWP-2. If no packets are shown the sender has not sent any weather packets the latest 10 day(s).

<< 16 17 18 19 20 21 22 >>
Time Temp. Humidity Pressure Rain* Wind** Luminosity Snow
1788565020 24.44° C 83% 1017.5 hPa 0 mm - 10 W/m² -
1788564720 25° C 82% 1017.4 hPa 0 mm - 11 W/m² -
1788564419 25° C 81% 1017.3 hPa 0 mm - 12 W/m² -
1788564119 25° C 81% 1017.4 hPa 0 mm - 13 W/m² -
1788563820 25.56° C 80% 1017.4 hPa 0 mm - 18 W/m² -
1788563520 25.56° C 79% 1017.3 hPa 0 mm - 26 W/m² -
1788563219 25.56° C 79% 1017.1 hPa 0 mm - 39 W/m² -
1788562920 25.56° C 79% 1017.3 hPa 0 mm - 47 W/m² -
1788562619 25.56° C 79% 1017.2 hPa 0 mm - 66 W/m² -
1788562320 25.56° C 79% 1017.2 hPa 0 mm - 64 W/m² -
1788562020 25.56° C 79% 1017 hPa 0 mm - 72 W/m² -
1788561719 25.56° C 78% 1016.9 hPa 0 mm - 72 W/m² -
1788561420 25.56° C 78% 1017 hPa 0 mm - 78 W/m² -
1788561119 25.56° C 78% 1016.8 hPa 0 mm - 86 W/m² -
1788560819 25.56° C 78% 1016.8 hPa 0 mm - 95 W/m² -
1788560520 26.11° C 78% 1016.7 hPa 0 mm - 101 W/m² -
1788560220 25.56° C 78% 1016.8 hPa 0 mm - 101 W/m² -
1788559920 25.56° C 79% 1016.9 hPa 0 mm - 100 W/m² -
1788559618 25.56° C 79% 1017 hPa 0 mm - 88 W/m² -
1788559318 25.56° C 79% 1016.8 hPa 0 mm - 94 W/m² -
1788559020 25.56° C 79% 1016.8 hPa 0 mm - 107 W/m² -
1788558719 25.56° C 78% 1016.9 hPa 0 mm - 118 W/m² -
1788558441 25.56° C 79% 1016.9 hPa 0 mm - 119 W/m² -
1788558117 25.56° C 79% 1016.9 hPa 0 mm - 99 W/m² -
1788557821 25.56° C 78% 1016.9 hPa 0 mm - 106 W/m² -

* Rain latest hour (hover to see other rain measurements)
** Current wind speed in m/s (hover to see current wind gust speed)